DW8947 Weather Reports


Display with metric or nautical units.
time (UTC)temp
F
wind
direction
speed
MPH
gust
MPH
rain 1hr
in
rain 24hr
in
rain mn
in
humidity
%
barometer
mb
20260507090204 53 93 0.0 0.0 0.00 0.00 0.00 91 1019.5
20260507085204 53 93 0.0 0.0 0.00 0.00 0.00 91 1019.6
20260507082704 53 93 0.0 0.0 0.00 0.00 0.00 91 1019.5
20260507081704 53 93 0.0 0.0 0.00 0.00 0.00 91 1019.4
20260507080704 53 93 0.0 1.0 0.00 0.00 0.00 91 1019.3
20260507075704 53 94 0.0 2.0 0.00 0.00 0.00 91 1019.3
20260507074704 53 94 0.0 1.0 0.00 0.00 0.00 91 1019.3
20260507073204 53 134 0.0 2.0 0.00 0.00 0.00 91 1019.3
20260507072704 53 134 0.0 2.0 0.00 0.00 0.00 91 1019.1
20260507072204 53 134 0.0 2.0 0.00 0.00 0.00 91 1019.2
20260507071703 53 134 0.0 2.0 0.00 0.00 0.00 90 1019.2
20260507071204 53 134 0.0 2.0 0.00 0.00 0.00 90 1019.2
20260507070204 53 134 0.0 0.0 0.00 0.00 0.00 90 1019.2
20260507065704 53 134 0.0 2.0 0.00 0.00 0.00 90 1019.2
20260507065204 53 134 0.0 1.0 0.00 0.00 0.00 90 1019.2
20260507064704 53 134 0.0 2.0 0.00 0.00 0.00 90 1019.1
20260507064204 53 134 0.0 1.0 0.00 0.00 0.00 90 1019.2
20260507063204 54 134 0.0 2.0 0.00 0.00 0.00 89 1019.1
20260507062203 54 134 0.0 2.0 0.00 0.00 0.00 89 1019.1
20260507054703 54 134 0.0 0.0 0.00 0.00 0.00 89 1019.2
20260507054204 54 134 0.0 0.0 0.00 0.00 0.00 88 1019.2
20260507053704 54 134 0.0 0.0 0.00 0.00 0.00 88 1019.2
20260507053204 55 134 0.0 0.0 0.00 0.00 0.00 88 1019.2
20260507052204 55 134 0.0 0.0 0.00 0.00 0.00 88 1019.3
20260507045704 55 134 0.0 2.0 0.00 0.00 0.00 88 1019.3
20260507045204 55 134 0.0 1.0 0.00 0.00 0.00 88 1019.2
20260507044204 55 134 0.0 0.0 0.00 0.00 0.00 87 1019.2
20260507043704 55 134 0.0 2.0 0.00 0.00 0.00 87 1019.2
20260507043204 55 134 0.0 0.0 0.00 0.00 0.00 87 1019.2
20260507042704 55 134 0.0 1.0 0.00 0.00 0.00 87 1019.2
20260507042204 55 134 0.0 2.0 0.00 0.00 0.00 87 1019.2
20260507040204 55 134 0.0 2.0 0.00 0.00 0.00 87 1019.1
20260507035204 55 134 0.0 2.0 0.00 0.00 0.00 86 1019.1
20260507034703 55 134 0.0 2.0 0.00 0.00 0.00 86 1019.1
20260507033704 55 134 0.0 2.0 0.00 0.00 0.00 86 1019.0
20260507031204 55 85 0.0 1.0 0.00 0.00 0.00 86 1018.9
20260507030204 55 85 0.0 0.0 0.00 0.00 0.00 86 1018.9
20260507025704 56 85 0.0 0.0 0.00 0.00 0.00 85 1018.8
20260507025204 56 85 0.0 0.0 0.00 0.00 0.00 85 1018.8
20260507023704 56 85 0.0 1.0 0.00 0.00 0.00 85 1018.8
20260507023204 56 85 0.0 0.0 0.00 0.00 0.00 85 1018.7
20260507021203 56 85 0.0 2.0 0.00 0.00 0.00 85 1018.7
20260507020204 56 85 0.0 0.0 0.00 0.00 0.00 85 1018.7
20260507015704 56 85 0.0 0.0 0.00 0.00 0.00 84 1018.6
20260507015204 56 85 0.0 0.0 0.00 0.00 0.00 84 1018.6
20260507012703 56 85 0.0 2.0 0.00 0.00 0.00 83 1018.7
20260507012204 56 85 0.0 2.0 0.00 0.00 0.00 83 1018.7
20260507011203 56 85 0.0 2.0 0.00 0.00 0.00 83 1018.8
20260507010703 56 85 0.0 1.0 0.00 0.00 0.00 82 1018.7
20260507010204 56 85 0.0 2.0 0.00 0.00 0.00 82 1018.7
20260507005204 57 85 0.0 2.0 0.00 0.00 0.00 81 1018.7
20260507003704 57 85 0.0 2.0 0.00 0.00 0.00 81 1018.8
20260507002703 57 138 0.0 2.0 0.00 0.00 0.00 82 1018.7
20260507002203 57 150 0.0 2.0 0.00 0.00 0.00 82 1018.7
20260507001204 57 150 0.0 2.0 0.00 0.00 0.00 81 1018.7
20260506234204 57 163 0.0 1.0 0.00 0.00 0.00 80 1018.7
20260506233705 57 163 0.0 2.0 0.00 0.00 0.00 80 1018.7
20260506233205 57 163 0.0 2.0 0.00 0.00 0.00 81 1018.8
20260506232705 57 163 0.0 2.0 0.00 0.00 0.00 80 1018.8
20260506230705 58 163 0.0 2.0 0.00 0.00 0.00 78 1018.8
20260506225705 58 163 0.0 2.0 0.00 0.00 0.00 79 1018.8
20260506224704 58 163 0.0 2.0 0.00 0.00 0.00 78 1018.9
20260506224205 58 163 0.0 2.0 0.00 0.00 0.00 77 1018.9
20260506223705 58 163 0.0 0.0 0.00 0.00 0.00 77 1018.9
20260506222705 58 163 0.0 2.0 0.00 0.00 0.00 76 1018.9
20260506221705 58 163 0.0 2.0 0.00 0.00 0.00 76 1018.9
20260506221205 58 163 0.0 2.0 0.00 0.00 0.00 76 1018.9
20260506220705 58 163 0.0 2.0 0.00 0.00 0.00 77 1019.0
20260506220204 58 163 0.0 2.0 0.00 0.00 0.00 77 1018.9
20260506215705 58 163 0.0 2.0 0.00 0.00 0.00 77 1018.9
20260506213705 57 163 0.0 2.0 0.00 0.00 0.00 76 1019.0
20260506213205 57 163 0.0 2.0 0.00 0.00 0.00 75 1018.9
20260506211705 58 249 0.0 2.0 0.00 0.00 0.00 76 1019.0
20260506210705 58 242 0.0 2.0 0.00 0.00 0.00 76 1019.1
20260506205205 57 210 0.0 2.0 0.00 0.00 0.00 77 1019.0
20260506204705 57 338 0.0 2.0 0.00 0.00 0.00 77 1019.0
20260506203704 57 318 0.0 1.0 0.00 0.00 0.00 76 1018.9
20260506203205 57 318 0.0 2.0 0.00 0.00 0.00 78 1018.9
20260506200704 57 221 0.0 2.0 0.00 0.00 0.00 80 1018.9
20260506195705 56 196 0.0 2.0 0.00 0.00 0.00 80 1018.9
20260506194705 56 182 0.0 2.0 0.00 0.00 0.00 80 1018.9
20260506193704 57 200 0.0 1.0 0.00 0.00 0.00 79 1018.8
20260506191705 57 197 0.0 1.0 0.00 0.00 0.00 79 1018.6
20260506191205 57 169 0.0 2.0 0.00 0.00 0.00 79 1018.6
20260506190705 57 169 0.0 2.0 0.00 0.00 0.00 78 1018.6
20260506190205 57 144 0.0 2.0 0.00 0.00 0.00 79 1018.6
20260506185205 56 187 0.0 2.0 0.00 0.00 0.00 81 1018.6
20260506184204 56 270 0.0 2.0 0.00 0.00 0.00 82 1018.6
20260506183705 56 289 0.0 2.0 0.00 0.00 0.00 83 1018.6
20260506183204 55 233 0.0 2.0 0.00 0.00 0.00 82 1018.6
20260506182704 55 249 0.0 2.0 0.00 0.00 0.00 84 1018.5
20260506181704 55 98 1.0 2.0 0.00 0.00 0.00 84 1018.6
20260506180705 54 291 0.0 2.0 0.00 0.00 0.00 86 1018.5
20260506180205 54 181 0.0 1.0 0.00 0.00 0.00 88 1018.5
20260506174704 54 327 0.0 2.0 0.00 0.00 0.00 91 1018.6
20260506172704 54 114 0.0 2.0 0.00 0.00 0.00 90 1018.2
20260506172205 54 114 1.0 2.0 0.00 0.00 0.00 90 1018.1
20260506171204 54 114 0.0 2.0 0.00 0.00 0.00 90 1018.3
20260506165705 54 106 0.0 1.0 0.00 0.00 0.00 90 1018.2
20260506162705 54 160 0.0 2.0 0.00 0.00 0.00 90 1018.3
20260506162205 54 158 0.0 2.0 0.00 0.00 0.00 90 1018.3
20260506161705 54 87 0.0 2.0 0.00 0.00 0.00 90 1018.2
20260506161204 54 82 0.0 2.0 0.00 0.00 0.00 90 1018.2
20260506160206 53 65 0.0 2.0 0.00 0.00 0.00 91 1017.9
20260506155706 54 170 1.0 2.0 0.00 0.00 0.00 91 1017.7
20260506155205 53 173 0.0 2.0 0.00 0.00 0.00 91 1017.6
20260506154705 53 205 0.0 2.0 0.00 0.00 0.00 91 1017.6
20260506152705 53 152 0.0 2.0 0.00 0.00 0.00 90 1017.7
20260506152205 53 152 0.0 1.0 0.00 0.00 0.00 90 1017.8
20260506151204 54 152 0.0 2.0 0.00 0.00 0.00 89 1017.7
20260506150704 54 152 0.0 2.0 0.00 0.00 0.00 89 1017.9
20260506145705 54 152 0.0 2.0 0.00 0.00 0.00 88 1018.0
20260506143204 53 144 0.0 2.0 0.00 0.00 0.00 89 1017.5
20260506142705 53 102 0.0 2.0 0.00 0.00 0.00 89 1017.7
20260506142205 53 105 0.0 2.0 0.00 0.00 0.00 89 1017.6
20260506141705 53 105 0.0 2.0 0.00 0.00 0.00 89 1017.6
20260506140705 53 105 0.0 2.0 0.00 0.00 0.00 89 1017.6
20260506134705 53 215 0.0 2.0 0.00 0.00 0.00 89 1017.3
20260506133705 53 215 0.0 2.0 0.00 0.00 0.00 89 1017.4
20260506131704 53 237 0.0 2.0 0.00 0.00 0.00 90 1017.2
20260506131205 53 237 0.0 2.0 0.00 0.00 0.00 90 1017.3
20260506130705 53 237 0.0 2.0 0.00 0.00 0.00 91 1017.3
20260506130204 53 237 0.0 2.0 0.00 0.00 0.00 91 1017.2
20260506125204 53 237 0.0 1.0 0.00 0.00 0.00 91 1017.0
20260506124205 53 237 0.0 2.0 0.00 0.00 0.00 91 1016.7
20260506123705 53 237 0.0 2.0 0.00 0.00 0.00 91 1016.8
20260506122705 53 237 0.0 2.0 0.00 0.00 0.00 91 1016.9
20260506122204 53 237 0.0 1.0 0.00 0.00 0.00 91 1017.0
20260506121204 53 237 0.0 1.0 0.00 0.00 0.00 91 1016.8
20260506120705 53 237 0.0 2.0 0.00 0.00 0.00 91 1016.8
20260506115705 53 237 0.0 2.0 0.00 0.00 0.00 91 1016.8
20260506115205 53 237 0.0 2.0 0.00 0.00 0.00 90 1016.7
20260506114704 53 237 0.0 2.0 0.00 0.00 0.00 90 1016.6
20260506114204 53 237 0.0 2.0 0.00 0.00 0.00 90 1016.6
20260506113705 53 237 0.0 2.0 0.00 0.00 0.00 91 1016.6
20260506112204 53 237 0.0 2.0 0.00 0.00 0.00 91 1016.4
20260506111705 53 237 0.0 1.0 0.00 0.00 0.00 91 1016.3
20260506111205 53 221 0.0 2.0 0.00 0.00 0.00 92 1016.3
20260506110205 52 208 0.0 2.0 0.00 0.00 0.00 92 1016.3
20260506103205 52 181 0.0 2.0 0.00 0.00 0.00 93 1016.1
20260506102204 52 181 0.0 0.0 0.00 0.00 0.00 93 1016.1
20260506101205 51 181 0.0 0.0 0.00 0.00 0.00 93 1016.1
20260506100205 51 181 0.0 0.0 0.00 0.00 0.00 93 1016.0
20260506095205 52 181 0.0 0.0 0.00 0.00 0.00 92 1015.9
20260506094705 52 181 0.0 0.0 0.00 0.00 0.00 92 1015.8
20260506094205 52 181 0.0 0.0 0.00 0.00 0.00 92 1015.8
20260506093205 52 181 0.0 0.0 0.00 0.00 0.00 92 1015.7
20260506092705 52 181 0.0 0.0 0.00 0.00 0.00 92 1015.6
20260506091705 52 181 0.0 0.0 0.00 0.00 0.00 92 1015.6